Погода в Алейникове

Россия / Белгородская область     50°28′07″N   38°49′58″E
темп.,
°C
ветер,
м/с
пор.,
м/с
влажн.,
%
обл.,
%
осадки,
мм/ч
давл.,
гПа
погр.,
м
17 мая, вт
вт1700:00+7з4108894 0.1 1012177
03:00+5з512872 0.1 1012283
06:00+6зсз511862 0.0 1012360
09:00+11зсз711583 0.0 10111376
12:00+13зсз8105258 0.6 10102021
15:00+13зсз8105171 1.6 10102234
18:00+13зсз511562 0.0 10091796
21:00+8зюз4107290 0.0 1010171
18 мая, ср
ср1800:00+7зюз377932 0.1 1009160
03:00+5з369351 0.1 100994
06:00+6зсз25861 0.0 1009143
09:00+11сз44631 0.0 1009783
12:00+14ссз2250100 0.3 10091994
15:00+12с446515 0.5 1010852
18:00+13ссв446310 0.5 10111162
21:00+8с338647 0.7 101334
19 мая, чт
чт1900:00+7с499679 0.2 1015245
03:00+6с49965 0.2 1016190
06:00+6с38913 0.0 1017240
09:00+11с67695 0.0 1018785
12:00+14ссз685213 0.0 10181667
15:00+16ссз7950100 0.0 10172222
18:00+13зсз3768100 0.0 1017316
21:00+10зсз41180100 0.3 1018255
20 мая, пт
пт2000:00+8сз378961 0.1 1019134
03:00+6сз35946 0.1 102088
06:00+7ссз269116 0.0 1021174
09:00+12сз4565100 0.0 1021790
12:00+15сз475191 0.0 10212029
15:00+17сз584366 0.1 10192285
18:00+15з3662100 0.0 1018424
21:00+11зсз3692100 1.2 1018235
21 мая, сб
сб2100:00+11юз2495100 1.9 101695
03:00+11ююз51191100 2.1 1013289
06:00+10зюз61489100 0.4 1011383
09:00+11юз61393100 1.1 1009412
12:00+14зюз81386100 0.6 1007661
15:00+17з71184100 1.4 1006883
18:00+14зюз51098100 5.3 1005574
21:00+14зсз2499100 13.4 1004233